Regional Weather Roundup
Issued by NWS Charleston, SC

Home | Current Version | Previous Version | Text Only | Print | Product List | Glossary On
Versions: 1 2 3 4 5 6 7 8 9 10 11 12 13 14 15 16 17 18 19 20 21 22 23 24 25 26 27 28 29 30 31 32 33 34 35 36 37 38 39 40 41 42 43 44 45 46 47 48 49 50
000
ASUS42 KCHS 060027
RWRCHS

REGIONAL WEATHER ROUNDUP
NATIONAL WEATHER SERVICE CHARLESTON SC
700 PM EST FRI FEB 05 2016

NOTE: "FAIR" INDICATES FEW OR NO CLOUDS BELOW 12,000 FEET WITH NO
SIGNIFICANT WEATHER AND/OR OBSTRUCTIONS TO VISIBILITY.

NOT ALL STATIONS ARE QUALITY CONTROLLED BY THE NATIONAL
WEATHER SERVICE. USE DATA WITH CAUTION...ESPECIALLY
DEWPOINT OBSERVATIONS.

NOTICE: OBSERVATIONS FOR THE SAVANNAH-HILTON HEAD INTERNATIONAL AIRPORT
/KSAV/ HAVE BEEN TEMPORARILY REMOVED DUE TO AN ERRONEOUS TEMPERATURE
SENSOR. THE OBSERVATION WILL BE REINTRODUCED ONCE REPAIRS ARE COMPLETE.

SCZ027-030-031-034>040-042>050-060100-
...SOUTHEAST SOUTH CAROLINA...

CITY           SKY/WX    TMP DP  RH WIND       PRES   REMARKS
N CHARLESTON   CLEAR     44  26  49 N6        30.36R
6HR MIN TEMP:  43; 6HR MAX TEMP:  54;

WATERFRONT PRK   N/A     49  30  47 N5        30.19R
MOUNT PLEASANT FAIR      43  36  75 CALM      30.36R
JOHNS ISLAND   FAIR      41  34  75 CALM      30.36R
PINOPOLIS        N/A     52  28  40 N10       30.28R
MONCKS CORNER  FAIR      39  28  65 CALM      30.37R
SUMMERVILLE    NOT AVBL
BEAUFORT MCAS  CLEAR     46  28  49 NE5       30.36R
6HR MIN TEMP:  43; 6HR MAX TEMP:  56;

BEAUFORT ARPT  FAIR      46  28  49 N7        30.36R
HILTON HEAD IS CLEAR     50  27  40 N7        30.37R
WALTERBORO     PTCLDY    39  32  75 N3        30.38R
ALLENDALE      FAIR      41  30  65 CALM      30.37R

...SOUTHERN MIDLANDS AND PEE DEE...

CITY           SKY/WX    TMP DP  RH WIND       PRES   REMARKS
GEORGETOWN     NOT AVBL
KINGSTREE      NOT AVBL
ORANGEBURG     CLEAR     42  26  53 CALM      30.37R
6HR MIN TEMP:  42; 6HR MAX TEMP:  53;

BARNWELL       FAIR      41  30  65 NW3       30.38R
AIKEN          FAIR      37  21  52 CALM      30.40R
MANNING        FAIR      37  28  70 CALM      30.38R
COLUMBIA       CLEAR     47  20  34 CALM      30.36R
6HR MIN TEMP:  47; 6HR MAX TEMP:  53;

SUMTER         CLEAR     41  21  44 N6        30.34R
6HR MIN TEMP:  40; 6HR MAX TEMP:  52;

FLORENCE       PTCLDY    44  25  47 N3        30.36R
6HR MIN TEMP:  43; 6HR MAX TEMP:  51;

MYRTLE BEACH   CLEAR     45  25  45 N9        30.36R
N MYRTLE BEACH CLEAR     42  31  64 CALM      30.35R
6HR MIN TEMP:  42; 6HR MAX TEMP:  51;


$$

GAZ063-065-086>088-099>101-113>116-118-119-134>141-150-060100-
...SOUTHEAST GEORGIA...

CITY           SKY/WX    TMP DP  RH WIND       PRES   REMARKS
SAVANNAH ARPT  PTCLDY    46  25  43 N5        30.36R
6HR MIN TEMP:  46; 6HR MAX TEMP:  57;

HUNTER AAF     CLEAR     49  27  41 NE3       30.33R
6HR MIN TEMP:  49; 6HR MAX TEMP:  56;

FORT STEWART   PTCLDY    44  33  67 CALM      30.33R
6HR MIN TEMP:  44; 6HR MAX TEMP:  56;

STATESBORO     PTCLDY    42  30  61 CALM      30.36R
SYLVANIA       CLEAR     42  36  80 CALM      30.37R
CLAXTON        FAIR      42  35  75 CALM      30.36R

...CSRA...CENTRAL AND FAR SOUTHEAST GEORGIA...

CITY           SKY/WX    TMP DP  RH WIND       PRES   REMARKS
THOMSON        CLEAR     40  32  73 CALM      30.42R
AUGUSTA-BUSH   CLEAR     44  21  40 NE5       30.37R
6HR MIN TEMP:  44; 6HR MAX TEMP:  53;

AUGUSTA-DANIEL CLEAR     47  19  33 NE6       30.37R
SWAINSBORO     FAIR      37  30  75 CALM      30.37R
VIDALIA        PTCLDY    43  32  65 N3        30.36R
EASTMAN        FAIR      40  30  68 CALM      30.38R
HAZLEHURST     FAIR      43  35  74 CALM      30.35R
ALMA           PTCLDY    41  34  76 CALM      30.35R
6HR MIN TEMP:  41; 6HR MAX TEMP:  54;

WAYCROSS       PTCLDY    45  37  72 CALM      30.35R
JESUP          FAIR      45  37  76 CALM      30.35R
BAXLEY         FAIR      45  36  70 CALM      30.35R
BRUNSWICK      CLEAR     43  41  93 CALM      30.36R
SAINT SIMONS   CLEAR     48  37  65 NE7       30.34R
6HR MIN TEMP:  48; 6HR MAX TEMP:  56;


$$

SCZ027-028-034-036>038-045-046-048>050-GAZ119-141-060100-
...LAKE AND SUPPLEMENTAL COASTAL OBSERVATIONS...

STATION/POSITION TIME  TEMP    WIND        PRES    WAVE   SWELL
                       AIR SEA DIR/SP/G            HT/PER HT/PER/DIR
                 (UTC) (F)     (DEG/KT/KT) (MB)    (FT/S) (FT/S/D)
WINYAH BAY       2345   44     360/  4     1025.0S
LAKE MURRAY      0000   44      CALM  /  2 1027.8R
ACE BASIN NERRS  2300   48        CALM     1027.0R
FORT PULASKI     NOT AVBL
SAPELO ISLAND    0000   46      60/  4     1027.0S

$$

ANZ835-935-AMZ111-154-330-350-352-354-370-450-454-472-060100-
...C-MAN AND BUOY OBSERVATIONS...

STATION/POSITION TIME  TEMP    WIND        PRES    WAVE   SWELL
                       AIR SEA DIR/SP/G            HT/PER HT/PER/DIR
                 (UTC) (F)     (DEG/KT/KT) (MB)    (FT/S) (FT/S/D)
BUOY 41004       2350   50 67   10/ 16/ 21 1026.7R   5/ 5   2/ 8
BUOY 41008       2350   52 56   50/ 12/ 14 1027.5R   3/ 6   2/ 60/ 6
FOLLY BEACH CMAN 0000   49     360/ 10/ 12 1027.9R
CAPERS NEARSHORE 2308   51      20/ 12/ 16 1025.4R
FRIPP NEARSHORE  2300   51      20/ 14/ 16 1025.9R


STATION/POSITION TIME  TEMP    WIND        PRES    WAVE   SWELL
                       AIR SEA DIR/SP/G            HT/PER HT/PER/DIR
                 (UTC) (F)     (DEG/KT/KT) (MB)    (FT/S) (FT/S/D)
5E ST. MARYS GA  2321      58                N/A     4/ 5
FRYING PAN BUOY  0000   49 69  350/ 16/ 21 1027.3R
BUOY 41025       2350      70   10/ 23/ 29 1026.6R   8/11   5/ 30/11
CAPE LOOKOUT NC  NOT AVBL
BUOY 41002       2350   58 69   10/ 21/ 27   N/A    13/10   7/320/10
BUOY 41010       2320   65 73              1022.1R
ST AUGUSTINE FL  0000   53 59  360/ 22/ 25 1026.5S


$$



USA.gov is the U.S. government's official web portal to all federal, state and local government web resources and services.